Regional Weather Roundup
Issued by NWS

Home | Current Version | Previous Version | Text Only | Print | Product List | Glossary On
Versions: 1 2 3 4 5 6 7 8 9 10 11 12 13 14 15 16 17 18 19 20 21 22 23 24 25 26 27 28 29 30 31 32 33 34 35 36 37 38 39 40 41 42 43 44 45 46 47 48 49 50
880
ASUS44 KFWD 230710
RWRTX
NORTH TEXAS HOURLY WEATHER ROUNDUP
NATIONAL WEATHER SERVICE FORT WORTH TX
200 AM CDT FRI JUN 23 2017

NOTE: "FAIR" INDICATES FEW OR NO CLOUDS BELOW 12,000 FEET WITH NO
SIGNIFICANT WEATHER AND/OR OBSTRUCTIONS TO VISIBILITY.

TXZ118-119-230800-
DALLAS/FORT WORTH METROPLEX

CITY           SKY/WX    TMP DP  RH WIND       PRES   REMARKS
DFW AIRPORT    MOCLDY    80  74  81 S8        29.71S
DALLAS LOVE    CLOUDY    82  72  71 S3        29.72S
FTW MEACHAM    CLOUDY    79  74  84 S6        29.73S
DAL-EXECUTIVE  CLOUDY    79  74  84 S5        29.73R
FTW-ALLIANCE   CLOUDY    78  73  84 S6        29.73S
FTW-NAS-JRB    CLOUDY    80  73  79 S7        29.73S
FTW-SPINKS     PTCLDY    77  73  87 S5        29.75S
ARLINGTON      MOCLDY    76  73  91 SE5       29.73S
GRAND PRAIRIE  PTCLDY    78  71  79 CALM      29.75S
ADDISON        CLOUDY    81  73  76 S5        29.74F
MESQUITE       PTCLDY    77  73  87 SW3       29.74R
LANCASTER      CLEAR     76  73  87 CALM      29.74S
$$

TXZ091>094-102>105-117-120-121-131>134-230800-
NORTH CENTRAL TEXAS

CITY           SKY/WX    TMP DP  RH WIND       PRES   REMARKS
SHRMAN/DENISON CLEAR     75  71  88 S3        29.74S
GAINESVILLE    CLEAR     74  71  89 CALM      29.75F
BOWIE          CLEAR     74  74 100 CALM      29.74F
BRIDGEPORT     CLEAR     75  71  86 S5        29.74F
DECATUR        CLEAR     78  71  80 SE5       29.75S
DENTON         CLOUDY    76  73  91 SE5       29.72S
MCKINNEY       CLOUDY    75  75 100 CALM      29.72S
BONHAM         CLEAR     73  72  94 CALM      29.73R
GREENVILLE     CLEAR     81  73  78 SW8       29.74R
ROCKWALL       CLEAR     78  74  88 S8        29.74R
TERRELL        CLEAR     77  74  90 S6        29.74R
WAXAHACHIE     CLOUDY    75  74  99 CALM      29.75S
CLEBURNE       CLOUDY    77  75  94 S6        29.76S
GRANBURY       CLEAR     79  72  80 SE3       29.75S
$$

TXZ083>090-098>101-113>116-127>130-139>142-154-155-230800-
WESTERN NORTH TEXAS

CITY           SKY/WX    TMP DP  RH WIND       PRES   REMARKS
WICHITA FALLS  CLEAR     75  69  81 SE6       29.72S
WF-KICKAPOO    CLEAR     75  70  84 SE3       29.75S
VERNON         CLEAR     77  63  60 E5        29.73F
ABILENE        CLEAR     77  62  59 SE12      29.74F
ABILENE-DYESS  CLEAR     75  60  58 S9        29.73F
GRAHAM         CLEAR     77  71  80 S3        29.72R
BRECKENRIDGE   CLEAR     79  68  69 SE9       29.73S
CISCO          CLEAR     73  68  83 SE9       29.76S
EASTLAND       CLEAR     75  70  84 SE7       29.75S
MINERAL WELLS  CLEAR     75  70  84 SE10      29.72S
STEPHENVILLE   CLEAR     75  69  82 CALM      29.78S
COMANCHE       CLEAR     74  68  83 SE5       29.75F
BROWNWOOD      CLEAR     72  64  78 CALM      29.75S
COLEMAN        PTCLDY    75  56  51 E3        29.76S
$$

TXZ143>147-156>162-174-175-230800-
CENTRAL TEXAS

CITY           SKY/WX    TMP DP  RH WIND       PRES   REMARKS
WACO           PTCLDY    78  74  87 SE7       29.73R
WACO-MCGREGOR  MOCLDY    78  74  87 SE7       29.73S
HILLSBORO      CLOUDY    79  74  83 S8        29.74S
CORSICANA      CLOUDY    78  74  87 S6        29.75R
MEXIA          PTCLDY    76  73  90 S3        29.74R
HEARNE         PTCLDY    78  78 100 SE6       29.74R
CAMERON        MOCLDY    80  76  87 S9        29.73S
TEMPLE         PTCLDY    78  74  87 SE7       29.74R
KILLEEN        CLEAR     75  72  88 SE6       29.73R
KILLEEN-SKYLRK CLOUDY    79  74  84 S7        29.74R
FORT HOOD      PTCLDY   N/A N/A N/A SE8       29.71R
HAMILTON       CLEAR     76  71  84 S6        29.77R
$$

TXZ095>097-106>112-122>126-135>138-148>153-164>167-230800-
EAST TEXAS

CITY           SKY/WX    TMP DP  RH WIND       PRES   REMARKS
PARIS            N/A     76  74  93 SE3       29.73R
SULPHUR SPRNGS CLOUDY    78  75  90 SW6       29.74S
MOUNT PLEASANT MOCLDY    78  78 100 SW6       29.73R
GILMER         CLOUDY    77  75  95 S7        29.73S
MINEOLA        CLOUDY    79  75  89 SW6       29.73R
TYLER          CLOUDY    78  76  93 S10       29.74R
LONGVIEW       CLOUDY    77  77 100 S10       29.73R
MARSHALL       CLOUDY    75  73  92 SW5       29.75S
ATHENS         PTCLDY    73  73 100 CALM      29.73S
PALESTINE      CLOUDY    76  75  97 CALM      29.76R
JACKSONVILLE   CLOUDY    75  75 100 S6        29.78R
HENDERSON      CLOUDY    76  75  97 S3        29.76R
CENTER         CLOUDY    81  79  95 S8        29.76S HX  90
NACOGDOCHES    CLOUDY    77  73  88 MISG      29.74S
LUFKIN         CLOUDY    77  76  96 S6        29.76R
$$

SUPPLEMENTAL OBSERVATIONS (NWS FORT WORTH AREA)

CITY           SKY/WX    TMP DP  RH WIND       PRES   REMARKS
POSSUM KINGDOM   N/A     79  70  73 SE7         N/A
GRANBURY         N/A     79  72  78 SE6         N/A
MCGREGOR         N/A     77  72  83 SE6         N/A
TEMPLE           N/A     77  72  83 E3          N/A
$$

SUPPLEMENTAL OBSERVATIONS (NWS NORMAN AREA)

CITY           SKY/WX    TMP DP  RH WIND       PRES   REMARKS
GOODLETT         N/A     75  59  57 E8        29.72F
ODELL            N/A     76  69  80 E8        29.74S
CROWELL          N/A     76  60  58 E3        29.73F
KNOX CITY        N/A     78  57  47 SE6       29.73F
SEYMOUR          N/A     82  69  66 SE7       29.73S
MILLERS CREEK    N/A     77  63  61 SE5         N/A
$$

SUPPLEMENTAL OBSERVATIONS (NWS SAN ANGELO AREA)

CITY           SKY/WX    TMP DP  RH WIND       PRES   REMARKS
HASKELL          N/A     79  59  49 SE8       29.74S
THROCKMORTON     N/A     73  64  73 SE5       29.74F
STAMFORD         N/A     77  62  59 S5        29.75S
CLYDE            N/A     76  62  62 SE12      29.77F
HAMBY            N/A    N/A N/A N/A SE6         N/A
$$

SUPPLEMENTAL OBSERVATIONS (NWS SHREVEPORT AREA)

CITY           SKY/WX    TMP DP  RH WIND       PRES   REMARKS
TEXARKANA        N/A     75  73  94 CALM        N/A
LINDEN           N/A     77  73  88 S1          N/A
LUFKIN           N/A     77  75  94 MISG        N/A
N SABINE NF      N/A     75  73  94 MISG        N/A
$$

SUPPLEMENTAL OBSERVATIONS ARE A COLLECTION OF AUTOMATED INSTRUMENTS
THAT ARE MAINTAINED BY A VARIETY OF FEDERAL AND STATE AGENCIES.
CERTAIN ELEMENTS...SUCH AS HUMIDITY VALUES AND SUSTAINED WIND
SPEEDS...MAY BE APPROXIMATED.





USA.gov is the U.S. government's official web portal to all federal, state and local government web resources and services.